User: anonymous   Login
Location: Christianberg
(48.9086°N, 14.0209°E)
Time: 11:25:07
(UTC+00:00)
Language:

Cosmos 1943 - Orbit

View from above orbital plane
View from above orbital plane
View from above satellite
View from above satellite

Ground track
Ground track

The orbit data is extracted from the following two-line orbital elements,

1 19119U 88039A   21260.22268160  .00000206  00000-0  13071-3 0  9990
2 19119  71.0017  80.1285 0012852 222.9911 308.4245 14.15179047721800
Epoch (UTC): 17 September 2021 05:20:39
Eccentricity: 0.0012852
inclination: 71.0017°
perigee height: 832 km
apogee height: 851 km
right ascension of ascending node: 80.1285°
argument of perigee: 222.9911°
revolutions per day: 14.15179047
mean anomaly at epoch: 308.4245°
orbit number at epoch: 72180

The dashed part of the orbit path shows where the satellite is in the earth's shadow,  

DLR